ONEWEB-0532 (55140 NORAD) Tracking and Keplerian Element Data

This shows tracking and keplerian element data for the satellite.

Feedback or suggestion? Click here.




ElementValue
Catalog55140
NameONEWEB-0532
Epoch Orbit76
Epoch Day14.33334491
Epoch Year2023
RAAN283.9584
Inclination86.5115
Eccentricity0.0010408
Argument of Perigee197.5337
Mean Anonmoly143.3611
Mean Motion14.90981798
Decay Rate-0.00042927
L11 55140U 23004A 23014.33334491 -.00042927 00000+0 -43769-2 0 9990
L22 55140 86.5115 283.9584 0010408 197.5337 143.3611 14.90981798 768



Live tracking and technical data element details for ONEWEB-0532 (NORAD 55140). ONEWEB-0532 can be tracked NOW for your location showing map with azimuth and elevation plus other details from your city location.







IsCatalogInMostPopularTable: catalog: 55140, numindb: 3
Update: records affected: 1



GetName: 55140 ONEWEB-0532

Hit Count: updated at: Tue, 07 Feb 2023 14:07:26 GMT